Tracking 18032 objects as of 25-March-2017
HD Live streaming from Space Station
objects crossing your sky now

SL-8 R/B

Track SL-8 R/B now!
10-day predictions


NORAD ID: 13950
Int'l Code: 1983-023B
Perigee: 954.5 km
Apogee: 1,010.1 km
Inclination: 83.0 °
Period: 104.6 minutes
Semi major axis: 7353 km
RCS: 4.7862 m2 (large)
Launch date: March 30, 1983
Source: Commonwealth of Independent States (former USSR) (CIS)
Launch site: PLESETSK MISSILE AND SPACE COMPLEX (PKMTR)

Note: This is a ROCKET BODY
Your satellite tracking list
Your tracking list is empty





NASA's NSSDC Master Catalog

Two Line Element Set (TLE):
1 13950U 83023B   17082.94647684 +.00000005 +00000-0 -10938-4 0  9991
2 13950 082.9558 033.9478 0037809 143.9755 216.3962 13.76834480707076
Source of the keplerian elements: AFSPC